• In Lithuania
  • List of Countries
  • For 7 days
  • Water Temperature
  • Satellite Maps
  • Weather Map
  • Weather Widgets
  • user-avatar
    Login

    Hourly Weather Malyy Mishkin

    Today, 19 July, Thursday

    Time Temperature Precipitation Wind Pressure Humidity
    00:00 +23°C° 0 mm 2 mps 748 mmHg 68%
    01:00 +23°C° 0 mm 1 mps 748 mmHg 70%
    02:00 +23°C° 0 mm 1 mps 748 mmHg 71%
    03:00 +23°C° 0 mm 1 mps 748 mmHg 73%
    04:00 +23°C° 0.1 mm 1 mps 748 mmHg 74%
    05:00 +23°C° 0.1 mm 2 mps 748 mmHg 74%
    06:00 +23°C° 0.1 mm 2 mps 748 mmHg 75%
    07:00 +25°C° 0.1 mm 2 mps 748 mmHg 69%
    08:00 +27°C° 0.1 mm 3 mps 748 mmHg 62%
    09:00 +28°C° 0.1 mm 3 mps 748 mmHg 56%
    10:00 +29°C° 0 mm 4 mps 748 mmHg 52%
    11:00 +32°C° 0 mm 4 mps 748 mmHg 48%
    12:00 +33°C° 0 mm 4 mps 748 mmHg 43%
    13:00 +32°C° 0 mm 4 mps 748 mmHg 45%
    14:00 +32°C° 0 mm 4 mps 748 mmHg 46%
    15:00 +30°C° 0 mm 4 mps 748 mmHg 47%
    16:00 +30°C° 0 mm 3 mps 748 mmHg 48%
    17:00 +29°C° 0 mm 3 mps 748 mmHg 49%
    18:00 +29°C° 0 mm 3 mps 748 mmHg 51%
    19:00 +28°C° 0.1 mm 2 mps 748 mmHg 54%
    20:00 +26°C° 0.1 mm 2 mps 748 mmHg 58%
    21:00 +25°C° 0.1 mm 2 mps 748 mmHg 62%
    22:00 +25°C° 0.1 mm 1 mps 748 mmHg 64%
    23:00 +24°C° 0.1 mm 1 mps 748 mmHg 67%

    Tomorrow, 20 July, Friday

    Time Temperature Precipitation Wind Pressure Humidity
    00:00 +24°C° 0.1 mm 1 mps 748 mmHg 70%
    01:00 +23°C° 0.2 mm 1 mps 748 mmHg 71%
    02:00 +23°C° 0.2 mm 1 mps 749 mmHg 72%
    03:00 +23°C° 0.2 mm 1 mps 749 mmHg 73%
    04:00 +23°C° 0 mm 1 mps 749 mmHg 74%
    05:00 +23°C° 0 mm 2 mps 749 mmHg 74%
    06:00 +23°C° 0 mm 2 mps 749 mmHg 75%
    07:00 +24°C° 0.1 mm 2 mps 749 mmHg 72%
    08:00 +25°C° 0.1 mm 2 mps 749 mmHg 69%
    09:00 +27°C° 0.1 mm 2 mps 749 mmHg 66%
    10:00 +28°C° 0.1 mm 3 mps 749 mmHg 61%
    11:00 +29°C° 0.1 mm 3 mps 749 mmHg 57%
    12:00 +30°C° 0.1 mm 3 mps 749 mmHg 52%
    13:00 +31°C° 0.1 mm 3 mps 749 mmHg 49%
    14:00 +32°C° 0.1 mm 4 mps 749 mmHg 47%
    15:00 +33°C° 0.1 mm 4 mps 749 mmHg 44%
    16:00 +31°C° 0 mm 3 mps 749 mmHg 45%
    17:00 +31°C° 0 mm 3 mps 749 mmHg 46%
    18:00 +31°C° 0 mm 3 mps 749 mmHg 47%
    19:00 +29°C° 0.1 mm 3 mps 749 mmHg 52%
    20:00 +28°C° 0.1 mm 2 mps 749 mmHg 56%
    21:00 +26°C° 0.1 mm 2 mps 749 mmHg 60%
    22:00 +25°C° 0.1 mm 2 mps 749 mmHg 62%
    23:00 +25°C° 0.1 mm 2 mps 749 mmHg 64%

    Day after tomorrow, 21 July, Saturday

    Time Temperature Precipitation Wind Pressure Humidity
    00:00 +24°C° 0.1 mm 2 mps 749 mmHg 65%
    01:00 +24°C° 0 mm 2 mps 749 mmHg 67%
    02:00 +23°C° 0 mm 2 mps 749 mmHg 68%
    03:00 +23°C° 0 mm 2 mps 749 mmHg 70%
    04:00 +23°C° 0 mm 2 mps 749 mmHg 71%
    05:00 +23°C° 0 mm 2 mps 749 mmHg 72%
    06:00 +23°C° 0 mm 2 mps 750 mmHg 74%
    07:00 +25°C° 0 mm 2 mps 750 mmHg 68%
    08:00 +27°C° 0 mm 3 mps 750 mmHg 62%
    09:00 +29°C° 0 mm 3 mps 750 mmHg 55%
    10:00 +30°C° 0 mm 4 mps 750 mmHg 51%
    11:00 +33°C° 0 mm 4 mps 750 mmHg 47%
    12:00 +34°C° 0 mm 5 mps 750 mmHg 42%
    13:00 +34°C° 0 mm 5 mps 750 mmHg 42%
    14:00 +34°C° 0 mm 5 mps 750 mmHg 42%
    15:00 +34°C° 0 mm 5 mps 750 mmHg 42%
    16:00 +33°C° 0 mm 4 mps 750 mmHg 43%
    17:00 +33°C° 0 mm 4 mps 750 mmHg 44%
    18:00 +32°C° 0 mm 4 mps 750 mmHg 46%
    19:00 +30°C° 0 mm 3 mps 750 mmHg 50%
    20:00 +29°C° 0 mm 3 mps 750 mmHg 54%
    21:00 +27°C° 0 mm 3 mps 750 mmHg 58%
    22:00 +26°C° 0 mm 3 mps 750 mmHg 61%
    23:00 +26°C° 0 mm 3 mps 750 mmHg 64%

    22 July, Sunday

    Time Temperature Precipitation Wind Pressure Humidity
    00:00 +25°C° 0 mm 3 mps 750 mmHg 67%
    01:00 +24°C° 0 mm 3 mps 750 mmHg 70%
    02:00 +24°C° 0 mm 3 mps 750 mmHg 73%
    03:00 +22°C° 0 mm 3 mps 750 mmHg 76%
    04:00 +24°C° 0 mm 3 mps 750 mmHg 77%
    05:00 +24°C° 0 mm 3 mps 750 mmHg 78%
    06:00 +24°C° 0 mm 3 mps 750 mmHg 79%
    07:00 +26°C° 0.1 mm 3 mps 750 mmHg 72%
    08:00 +28°C° 0.1 mm 3 mps 750 mmHg 64%
    09:00 +30°C° 0.1 mm 4 mps 750 mmHg 57%
    10:00 +32°C° 0.4 mm 4 mps 750 mmHg 53%
    11:00 +33°C° 0.4 mm 4 mps 750 mmHg 49%
    12:00 +33°C° 0.4 mm 4 mps 750 mmHg 45%
    13:00 +33°C° 0.1 mm 4 mps 750 mmHg 45%
    14:00 +33°C° 0.1 mm 4 mps 749 mmHg 45%
    15:00 +33°C° 0.1 mm 4 mps 749 mmHg 45%
    16:00 +33°C° 0 mm 4 mps 749 mmHg 46%
    17:00 +33°C° 0 mm 4 mps 749 mmHg 46%
    18:00 +33°C° 0 mm 3 mps 749 mmHg 47%
    19:00 +30°C° 0 mm 3 mps 749 mmHg 52%
    20:00 +29°C° 0 mm 3 mps 749 mmHg 57%
    21:00 +27°C° 0 mm 3 mps 750 mmHg 62%
    22:00 +26°C° 0 mm 3 mps 750 mmHg 65%
    23:00 +26°C° 0 mm 2 mps 750 mmHg 69%

    23 July, Monday

    Time Temperature Precipitation Wind Pressure Humidity
    00:00 +25°C° 0 mm 2 mps 749 mmHg 72%
    01:00 +24°C° 0 mm 2 mps 749 mmHg 75%
    02:00 +24°C° 0 mm 2 mps 749 mmHg 77%
    03:00 +24°C° 0 mm 2 mps 749 mmHg 79%
    04:00 +24°C° 0 mm 2 mps 749 mmHg 79%
    05:00 +24°C° 0 mm 2 mps 749 mmHg 78%
    06:00 +24°C° 0 mm 2 mps 750 mmHg 78%
    07:00 +26°C° 0 mm 2 mps 750 mmHg 71%
    08:00 +28°C° 0 mm 2 mps 750 mmHg 64%
    09:00 +29°C° 0 mm 2 mps 749 mmHg 57%
    10:00 +30°C° 0.1 mm 2 mps 749 mmHg 53%
    11:00 +31°C° 0.1 mm 2 mps 749 mmHg 48%
    12:00 +33°C° 0.1 mm 3 mps 749 mmHg 44%
    13:00 +34°C° 0 mm 2 mps 749 mmHg 43%
    14:00 +34°C° 0 mm 2 mps 749 mmHg 42%
    15:00 +34°C° 0 mm 2 mps 749 mmHg 41%
    16:00 +34°C° 0 mm 2 mps 749 mmHg 42%
    17:00 +32°C° 0 mm 2 mps 749 mmHg 42%
    18:00 +32°C° 0 mm 1 mps 749 mmHg 43%
    19:00 +31°C° 0 mm 1 mps 749 mmHg 45%
    20:00 +30°C° 0 mm 1 mps 749 mmHg 48%
    21:00 +29°C° 0 mm 1 mps 749 mmHg 51%
    22:00 +28°C° 0.1 mm 1 mps 749 mmHg 53%
    23:00 +27°C° 0.1 mm 1 mps 749 mmHg 56%

    24 July, Tuesday

    Time Temperature Precipitation Wind Pressure Humidity
    00:00 +26°C° 0.1 mm 1 mps 749 mmHg 58%
    01:00 +26°C° 0 mm 1 mps 749 mmHg 60%
    02:00 +25°C° 0 mm 1 mps 749 mmHg 62%
    03:00 +25°C° 0 mm 1 mps 749 mmHg 65%
    04:00 +25°C° 0 mm 1 mps 750 mmHg 65%
    05:00 +25°C° 0 mm 1 mps 750 mmHg 65%
    06:00 +23°C° 0 mm 0 mps 750 mmHg 66%
    07:00 +27°C° 0.1 mm 1 mps 750 mmHg 60%
    08:00 +29°C° 0.1 mm 1 mps 750 mmHg 54%
    09:00 +31°C° 0.1 mm 1 mps 750 mmHg 49%
    10:00 +32°C° 0 mm 1 mps 750 mmHg 45%
    11:00 +33°C° 0 mm 1 mps 750 mmHg 41%
    12:00 +34°C° 0 mm 1 mps 750 mmHg 37%
    13:00 +34°C° 0 mm 1 mps 750 mmHg 37%
    14:00 +34°C° 0 mm 1 mps 750 mmHg 37%
    15:00 +35°C° 0 mm 2 mps 750 mmHg 37%
    16:00 +34°C° 0 mm 1 mps 750 mmHg 38%
    17:00 +33°C° 0 mm 1 mps 750 mmHg 39%
    18:00 +33°C° 0 mm 1 mps 750 mmHg 40%
    19:00 +32°C° 0.1 mm 1 mps 750 mmHg 44%
    20:00 +31°C° 0.1 mm 2 mps 751 mmHg 48%
    21:00 +29°C° 0.1 mm 2 mps 751 mmHg 52%
    22:00 +28°C° 0.7 mm 2 mps 751 mmHg 59%
    23:00 +27°C° 0.7 mm 2 mps 751 mmHg 65%
    Show more